Flag for U.S.A. Weather past 2 weeks in San Luis Obispo, California, U.S.A.

Now
58 °F

Overcast.


Feels Like: 55 °F
Forecast: 40 / 56 °F
Wind: 12 mph from Northwest

Location: San Luis Obispo County-Mc Chesney Field

Current Time: Dec 24, 2014 at 5:44:01 PM

Latest Report: Dec 24, 2014 at 4:56 PM


Visibility: 10 mi

Pressure: 29.96 "Hg

Humidity: 84%

Dew point: 53 °F

Location of San Luis ObispoLocation

Historic Weather in San Luis Obispo — Graph

°F

San Luis Obispo temperature yesterday

Maximum temperature yesterday: 73 °F (at 12:56 PM)
Minimum temperature yesterday: 50 °F (at 11:56 PM)
Average temperature yesterday: 62 °F

Past Weeks' High & Low Weather Summary

 TemperatureHumidityPressure
High73 °F (Dec 23, 12:56 PM)100% (Dec 12, 5:56 AM)30.26 "Hg (Dec 12, 5:56 AM)
Low39 °F (Dec 13, 6:56 AM)48% (Dec 13, 1:56 PM)29.56 "Hg (Dec 11, 8:56 PM)
Average56 °F80%30.06 "Hg
* Reported Dec 9 4:56 PM — Dec 24 4:56 PM, San Luis Obispo, Weather by CustomWeather, © 2014

Note: Actual official high and low records may vary slightly from our data, if they occured in-between our weather recording intervals... More about our weather records

Advertising

San Luis Obispo weather history for previous 24 hours

 ConditionsComfort  
Time TempWeatherWind HumidityBarometerVisibility
4:56 PM
Dec 24
58 °FOvercast.12 mph84%29.96 "Hg10 mi
3:56 PM59 °FMostly cloudy.16 mph84%29.98 "Hg10 mi
2:56 PM60 °FBroken clouds.No wind78%29.96 "Hg10 mi
1:56 PM61 °FCloudy.10 mph78%30.01 "Hg10 mi
12:56 PM62 °FSunny.14 mph78%30.01 "Hg10 mi
11:56 AM63 °FSunny.13 mph78%30.04 "Hg10 mi
10:56 AM62 °FPartly sunny.10 mph75%30.06 "Hg10 mi
9:56 AM55 °FSunny.No wind77%30.09 "Hg10 mi
8:56 AM52 °FSunny.No wind83%30.06 "Hg10 mi
7:56 AM44 °FSunny.No wind93%30.07 "Hg10 mi
6:56 AM46 °FClear.No wind89%30.06 "Hg10 mi
5:56 AM45 °FClear.No wind90%30.06 "Hg10 mi
4:56 AM46 °FClear.No wind89%30.06 "Hg10 mi
3:56 AM46 °FClear.3 mph89%30.06 "Hg10 mi
2:56 AM48 °FClear.No wind89%30.06 "Hg10 mi
1:56 AM48 °FClear.5 mph89%30.06 "Hg10 mi
12:56 AM49 °FClear.3 mph90%30.06 "Hg10 mi
11:56 PM
Dec 23
50 °FClear.3 mph89%30.07 "Hg10 mi
10:56 PM52 °FClear.3 mph86%30.08 "Hg10 mi
9:56 PM55 °FClear.5 mph80%30.08 "Hg10 mi
8:56 PM54 °FClear.5 mph83%30.08 "Hg10 mi
7:56 PM56 °FClear.5 mph77%30.08 "Hg10 mi
6:56 PM59 °FClear.No wind72%30.07 "Hg10 mi
5:56 PM64 °FClear.3 mph61%30.06 "Hg10 mi
Weather by CustomWeather, © 2014

See weather overviewHow to use our weather pages